Flag for Germany Weather past 2 weeks in Landshut, Bavaria, Germany

Now
73 °F

Mild.


Feels Like: 77 °F
Forecast: 53 / 79 °F
Wind: 2 mph from South

Location: Erding Airport

Current Time: Jul 25, 2014 at 9:20:58 PM

Latest Report: Jul 25, 2014 at 8:20 PM


Visibility: 2 mi

Pressure: 29.89 "Hg

Humidity: 50%

Dew point: 54 °F

Location of LandshutLocation

Historic Weather in Landshut — Graph

°F

Landshut temperature yesterday

Maximum temperature yesterday: 75 °F (at 1:20 PM)
Minimum temperature yesterday: 52 °F (at 6:20 AM)
Average temperature yesterday: 65 °F

Past Weeks' High & Low Weather Summary

 TemperatureHumidityPressure
High81 °F (Jul 16, 4:20 PM)100% (Jul 10, 10:20 PM)30.21 "Hg (Jul 10, 10:20 PM)
Low52 °F (Jul 24, 6:20 AM)37% (Jul 17, 5:20 PM)29.83 "Hg (Jul 11, 12:20 AM)
Average66 °F78%29.99 "Hg
* Reported Jul 10 7:20 PM — Jul 25 7:20 PM, Landshut, Weather by CustomWeather, © 2014

Note: Actual official high and low records may vary slightly from our data, if they occured in-between our weather recording intervals... More about our weather records

Advertising

Landshut weather history for previous 24 hours

 ConditionsComfort  
Time TempWeatherWind HumidityBarometerVisibility
7:20 PM
Jul 25
77 °FWarm.5 mph44%29.89 "Hg2 mi
6:20 PM79 °FWarm.6 mph45%29.89 "Hg2 mi
5:20 PM79 °FWarm.6 mph45%29.89 "Hg2 mi
4:20 PM79 °FPleasantly warm.2 mph37%29.92 "Hg3 mi
3:20 PM79 °FWarm.3 mph42%29.92 "Hg2 mi
2:20 PM79 °FWarm.2 mph45%29.92 "Hg2 mi
1:20 PM77 °FWarm.3 mph47%29.92 "Hg2 mi
12:20 PM75 °FMild.3 mph54%29.95 "Hg2 mi
10:20 AM70 °FPassing clouds.3 mph69%29.98 "HgN/A
9:20 AM66 °FPassing clouds.3 mph73%29.95 "HgN/A
8:20 AM64 °FPassing clouds.2 mph83%29.95 "HgN/A
7:20 AM59 °FPassing clouds.2 mph88%29.95 "HgN/A
6:20 AM55 °FCool.3 mph94%29.95 "Hg2 mi
5:20 AM55 °FCool.2 mph100%29.95 "Hg2 mi
4:20 AM55 °FCool.2 mph94%29.92 "Hg2 mi
3:20 AM55 °FCool.2 mph94%29.92 "Hg2 mi
2:20 AM55 °FCool.2 mph100%29.92 "Hg2 mi
1:20 AM59 °FCool.2 mph88%29.92 "Hg2 mi
12:20 AM59 °FCool.2 mph94%29.92 "Hg2 mi
11:20 PM
Jul 24
63 °FMild.2 mph83%29.92 "Hg2 mi
10:20 PM63 °FMild.3 mph83%29.92 "Hg2 mi
9:20 PM66 °FMild.2 mph68%29.89 "Hg2 mi
Weather by CustomWeather, © 2014

See weather overviewHow to use our weather pages